Overview Statistics Trail Chart Weather Telemetry Raw packets
 

This is the latest recevied weather packets stored in our database for station/object PU5FJO-13. If no packets are shown the sender has not sent any weather packets the latest 10 day(s).

<< 11 12 13 14 15 16 17 >>
Time Temp. Humidity Pressure Rain* Wind** Luminosity Snow
1777632969 18.33° C 86% 1020.4 hPa - - - -
1777632369 17.78° C 84% 1020.3 hPa - - - -
1777631769 17.78° C 81% 1020.3 hPa - - - -
1777631169 16.67° C 84% 1020.3 hPa - - - -
1777630569 17.78° C 79% 1020.1 hPa - - - -
1777629969 17.78° C 78% 1020.1 hPa - - - -
1777629369 16.67° C 82% 1020.1 hPa - - - -
1777628769 17.22° C 80% 1020 hPa - - - -
1777628169 17.22° C 78% 1019.8 hPa - - - -
1777627569 17.78° C 76% 1019.8 hPa - - - -
1777626969 16.67° C 80% 1019.5 hPa - - - -
1777626369 17.22° C 81% 1019.5 hPa - - - -
1777625769 16.67° C 82% 1019.4 hPa - - - -
1777625169 17.78° C 78% 1019.3 hPa - - - -
1777624569 17.78° C 77% 1019.2 hPa - - - -
1777623969 17.22° C 79% 1019.1 hPa - - - -
1777623369 17.78° C 78% 1019 hPa - - - -
1777622769 17.22° C 80% 1018.9 hPa - - - -
1777622169 17.22° C 80% 1018.9 hPa - - - -
1777621569 17.78° C 76% 1019.1 hPa - - - -
1777620969 18.33° C 77% 1019.1 hPa - - - -
1777620369 18.33° C 78% 1019.2 hPa - - - -
1777619769 17.78° C 80% 1019.2 hPa - - - -
1777619169 17.78° C 81% 1019.3 hPa - - - -
1777618569 18.89° C 75% 1019 hPa - - - -

* Rain since midnight (hover to see other rain measurements)
** Current wind speed in m/s (hover to see current wind gust speed)